Starlink 33930

operational
NORAD ID: 63776 Int'l Des: 2025-091 Owner: SPXS Country: US Constellation: starlink
LEOCIRCULAR

关于 Starlink 33930

正在加载描述...

实时位置

正在加载3D地球...

即将过境

高度历史

Altitude vs Time

uPlot chart will show altitude changes over time

两行轨道根数

1 63776U 25091B 25304.71488150 .00031635 00000-0 11537-2 0 9991
2 63776 42.9963 61.2207 0001376 42.6557 317.4401 15.27594662 29174
Epoch: Oct 31, 2025 • Age: 19 hours

当前状态

高度 482.6 km
速度 7.63 km/s
星下点 22.58°N, 20.1°W
发射日期 May 2, 2025
运行时间 0.5 years
类型 internet

技术详情

分类 Payload
质量 575.00 kg
干质量 530.00 kg
总质量 575.00 kg
长度 0.30 m
直径 4.10 m
跨度 29.00 m
形状 Box + pan
制造商 SPXS
平台类型 Starlink V2MO
阶段状态 In Orbit
所有者/国家 SPXS/US

大型星座

Loading constellations...